Theta_e
311 307 307 306 305 304 303 302 302 303 304 304 305 305 306 310 312 316 319 314 317 314 315 320 318 319 319 320 321 321 322 324 326 327 327 328 327 326 325 324 323 323 324 324 323
311 307 307 308 308 308 307 307 307 306 305 304 305 306 307 310 318 319 314 313 314 316 320 321 321 319 320 320 321 320 321 321 323 324 325 325 324 324 322 323 323 323 324 323 323
309 307 308 309 308 308 308 309 309 308 307 307 306 306 309 312 326 319 313 313 313 316 321 318 319 319 319 320 320 320 320 321 322 323 322 321 322 321 320 320 321 322 322 323 324
309 307 309 309 309 307 308 310 309 309 308 306 306 307 311 319 327 317 313 313 316 318 321 318 319 320 320 321 321 320 320 320 321 321 320 320 320 319 320 320 321 321 321 321 322
310 310 310 309 308 307 310 310 310 310 308 307 307 309 316 323 319 314 314 318 317 319 318 318 319 319 320 321 321 320 320 320 320 320 319 319 318 318 318 319 319 319 319 320 320
309 308 309 309 308 308 310 311 310 310 309 309 310 313 319 322 317 317 317 317 317 317 318 318 318 318 317 319 319 319 319 319 319 319 319 318 318 318 319 320 319 319 319 319 319
311 309 309 309 308 311 312 312 311 312 311 311 312 316 322 317 317 318 318 317 316 316 318 317 316 317 319 319 320 320 319 318 318 319 319 320 318 319 320 320 320 320 320 320 320
312 310 309 309 308 312 312 312 312 311 311 312 312 319 317 315 316 316 317 318 317 317 316 316 315 316 318 319 318 318 319 320 322 321 320 319 319 319 320 320 321 321 320 321 321
311 311 311 310 309 309 312 311 312 313 313 314 320 324 317 315 316 315 316 317 317 316 316 315 316 318 319 318 319 321 320 321 322 321 320 320 319 320 320 321 322 322 322 321 322
310 311 310 311 310 311 309 310 312 313 314 316 319 319 316 317 315 315 315 315 316 317 317 317 319 319 319 320 320 320 319 318 318 318 318 318 319 320 321 321 322 323 323 323 323
307 311 309 310 310 311 313 316 316 319 319 317 316 317 316 315 314 316 316 317 316 317 318 319 319 318 320 319 318 317 316 317 318 319 319 319 320 321 322 323 323 324 325 325 325
304 311 310 310 310 312 313 320 319 318 319 316 315 315 315 315 315 317 316 318 318 318 319 318 319 320 318 318 317 317 318 319 320 321 321 322 322 321 322 324 324 324 323 323 323
302 308 310 310 310 315 317 318 317 317 321 316 314 315 315 315 317 316 316 316 318 318 318 319 319 319 317 317 319 320 320 321 321 321 321 322 322 323 323 323 324 323 322 322 322
302 306 310 310 315 318 318 317 317 318 325 317 316 316 316 315 317 316 316 317 319 319 319 319 319 319 319 319 320 321 320 320 321 322 322 321 324 324 323 324 324 324 323 322 322
303 307 311 310 314 317 314 318 318 319 336 316 316 315 316 316 315 317 316 318 320 320 319 321 321 320 319 320 320 320 320 320 320 322 322 323 323 324 324 325 325 324 322 321 322
306 310 313 318 319 317 315 318 320 328 330 317 316 316 317 317 316 315 317 320 321 322 322 322 321 319 320 319 319 319 319 320 322 323 326 324 326 326 325 326 326 324 322 321 321
309 311 312 317 319 315 315 320 326 325 318 319 317 316 316 317 316 316 317 319 322 321 323 320 321 320 320 320 319 320 321 323 323 323 323 325 326 329 327 325 323 322 321 320 320
311 311 317 317 317 315 317 323 328 322 319 317 316 316 317 317 316 316 318 319 321 319 320 321 321 322 320 319 319 319 321 323 326 326 324 322 322 321 325 324 324 324 323 322 322
315 319 319 317 317 315 320 324 324 320 317 317 317 318 319 318 317 317 318 317 318 319 320 320 322 321 319 319 318 320 321 322 324 323 325 322 322 324 325 325 324 323 322 322 321
314 322 318 315 317 318 325 322 320 318 317 317 319 318 318 319 318 318 318 319 317 317 317 319 321 320 320 319 319 321 321 325 323 330 327 322 322 322 325 324 323 323 322 321 319
318 325 316 316 318 325 326 323 318 317 316 318 319 319 319 320 319 318 318 317 317 317 316 316 318 319 320 320 321 320 322 323 324 325 329 329 323 322 326 323 323 322 322 320 318
321 321 315 315 324 322 323 320 311 316 317 317 317 318 320 320 320 319 319 318 316 316 316 316 318 323 320 318 319 320 321 322 336 328 331 331 329 322 323 321 322 322 321 319 317
323 319 316 315 321 322 320 318 317 317 318 317 318 318 318 319 322 319 319 318 316 316 317 317 319 322 322 320 322 324 322 321 324 328 329 331 327 320 321 322 322 320 319 318 316
321 319 316 317 318 317 319 318 319 318 317 316 317 317 319 320 320 321 320 319 318 318 316 314 317 319 324 320 320 320 319 319 322 327 325 325 322 320 322 323 321 319 317 316 315
316 317 316 317 317 316 317 317 317 318 319 318 318 320 320 321 320 321 319 319 319 319 319 318 321 319 319 319 319 319 318 318 321 322 326 324 323 322 322 320 319 317 316 315 315
313 314 313 317 317 317 314 318 317 317 317 318 318 317 317 320 320 322 319 319 320 319 320 324 326 320 321 320 317 317 317 317 317 318 320 320 320 319 319 317 316 316 315 315 315
309 309 313 316 317 315 315 314 314 313 314 315 316 316 317 317 317 317 317 318 319 319 319 322 327 322 324 319 317 319 319 320 321 319 321 325 318 316 318 317 316 316 314 314 312
Wind_Speed
17 14 13 12 11 10 9 6 4 1 2 4 5 5 7 6 4 5 2 3 2 3 5 10 8 10 12 13 13 11 8 13 18 20 12 8 3 2 6 2 6 11 13 10 9
17 13 12 11 11 9 8 6 5 4 4 4 5 6 8 7 9 2 2 2 1 3 8 12 9 7 10 11 8 8 10 17 17 10 12 12 7 7 9 10 11 14 12 15 7
18 13 11 12 12 12 11 8 6 5 4 4 4 6 6 5 9 9 1 1 2 6 14 9 9 8 12 11 11 14 14 18 18 9 10 14 10 10 13 14 15 12 14 11 7
19 14 12 12 14 16 15 10 7 5 4 3 4 7 7 5 2 6 3 1 4 10 13 8 10 11 13 13 15 10 15 17 14 14 10 14 16 15 15 16 17 16 16 15 13
19 17 15 15 16 16 12 10 5 1 2 2 6 6 3 4 9 6 2 7 10 13 6 6 10 7 11 9 7 11 16 16 8 11 13 14 16 18 18 18 18 16 15 15 13
17 16 16 18 17 12 10 9 4 1 1 2 3 4 6 2 4 3 3 8 7 8 4 9 8 9 9 10 11 14 14 14 15 15 14 16 16 15 18 17 13 10 14 13 14
20 14 16 20 16 10 11 9 4 1 0 2 2 3 8 6 1 2 6 4 4 6 11 6 9 10 12 11 9 10 14 15 18 15 15 9 13 18 17 14 13 15 13 16 15
22 15 14 16 14 9 9 8 6 3 3 2 4 4 3 3 2 4 4 6 3 3 5 7 11 11 9 9 12 14 14 12 10 9 4 6 16 16 14 5 14 14 15 15 15
23 17 14 13 13 8 6 6 5 3 2 3 7 9 6 3 2 4 5 8 7 6 7 6 7 8 9 11 12 18 11 13 10 13 8 11 18 15 19 19 17 16 16 16 16
24 17 15 12 10 9 7 5 2 4 5 7 13 7 5 1 4 5 2 4 8 8 10 12 10 12 13 11 9 14 15 15 18 17 19 19 21 18 18 20 19 18 17 16 15
25 18 17 12 4 6 6 7 5 6 13 6 7 3 4 3 1 6 6 10 10 12 11 8 9 11 10 10 12 13 16 17 18 19 20 20 20 20 19 21 20 19 16 15 14
26 18 18 14 4 6 12 7 6 8 4 3 0 3 1 3 5 4 8 9 2 10 10 7 15 3 7 9 12 13 16 18 16 16 17 20 24 23 23 24 20 8 8 10 10
27 18 15 11 9 9 2 7 7 6 6 8 1 2 2 5 1 5 9 9 10 11 9 9 14 10 7 9 13 14 15 16 19 18 19 21 25 22 16 16 12 6 3 5 6
29 16 13 9 8 5 3 9 3 4 5 10 6 4 2 1 5 3 7 7 6 6 7 8 4 6 9 12 13 14 16 17 18 18 16 18 18 21 21 21 19 6 4 5 4
30 12 7 8 12 9 9 6 2 2 4 2 6 2 4 3 7 4 2 5 8 10 6 2 7 10 10 9 10 15 15 16 19 20 21 21 12 21 19 8 13 11 2 5 9
26 7 6 5 9 9 7 2 3 6 1 6 1 1 5 5 2 5 2 4 6 9 9 11 12 7 6 12 13 15 18 18 19 18 15 22 17 17 10 7 8 5 6 6 8
16 2 3 7 9 9 5 5 5 6 3 4 4 4 6 3 5 2 8 4 6 8 4 16 12 9 1 10 11 14 15 10 6 9 12 9 4 7 23 20 8 7 7 3 4
8 4 6 5 10 7 4 6 6 5 7 3 4 8 2 7 4 5 6 5 8 8 10 7 6 3 2 10 11 15 8 5 11 14 19 22 13 11 14 16 22 23 18 14 15
6 6 8 3 5 2 5 6 7 9 6 9 12 6 5 6 3 4 7 2 5 6 5 7 6 22 17 3 7 9 9 12 11 16 16 14 21 5 15 13 11 9 14 15 15
13 10 4 6 1 4 6 4 4 6 6 6 7 4 8 10 9 8 9 7 2 2 3 6 11 12 10 4 15 17 11 8 5 5 12 12 20 17 2 12 6 4 10 14 14
5 5 6 4 3 6 6 6 3 7 7 5 9 8 10 9 7 9 5 1 6 2 7 11 9 11 17 18 16 13 10 11 7 9 10 15 11 14 17 19 2 11 16 14 15
8 4 7 5 6 5 8 5 2 5 1 4 5 7 7 8 9 10 9 1 7 4 9 10 6 13 20 25 21 14 14 11 1 9 11 11 20 16 21 18 18 16 16 16 13
7 4 5 8 5 9 5 7 2 5 4 4 7 8 7 8 6 7 8 5 2 3 4 6 4 9 9 6 6 2 11 16 13 7 13 13 15 17 21 23 15 18 16 14 15
5 4 5 2 4 9 9 9 5 7 4 6 9 12 11 11 10 8 12 11 9 7 10 4 7 12 10 15 18 24 23 20 18 8 18 21 32 25 21 17 15 18 18 18 18
3 5 4 7 5 10 8 10 10 8 1 7 6 9 9 2 10 16 13 16 19 11 9 8 14 17 20 21 23 25 28 26 23 23 20 27 29 19 17 13 17 15 15 21 22
6 5 7 11 8 10 6 6 10 8 11 11 13 16 15 13 12 15 20 17 17 18 17 13 16 18 24 19 23 28 26 27 27 24 21 19 23 17 16 17 14 19 24 24 22
13 14 6 9 13 7 5 8 13 13 9 10 10 12 14 15 15 16 18 19 20 20 19 17 8 2 18 16 20 19 18 14 15 18 16 13 18 19 20 14 19 22 22 22 22
Wind_Direction
8 15 22 24 27 27 27 30 31 354 293 288 290 295 285 251 246 240 40 5 344 277 279 282 234 244 237 251 240 272 256 254 262 266 323 50 341 33 85 279 288 279 278 295 334
10 12 13 16 12 8 4 5 3 343 302 279 277 274 281 274 286 109 49 16 356 299 302 248 233 223 234 234 227 217 252 252 269 339 322 338 4 337 328 302 281 281 248 252 260
9 9 7 2 356 350 337 320 322 322 315 274 262 267 248 281 267 87 108 345 326 291 279 287 280 261 246 240 243 239 248 267 291 350 335 312 300 288 286 272 273 279 289 309 321
18 16 8 1 351 344 339 332 310 299 312 285 263 249 237 278 29 108 124 74 303 300 284 263 248 247 247 239 230 239 269 273 293 299 311 295 309 295 288 286 295 289 293 292 286
19 19 11 358 347 345 354 5 14 260 295 270 254 259 279 199 88 143 167 295 294 286 261 302 281 294 269 276 274 258 264 269 248 268 276 276 278 285 282 284 281 277 281 279 271
12 10 7 0 351 2 13 9 32 61 311 250 243 245 267 166 100 156 294 276 344 321 356 342 356 346 296 291 276 307 306 294 290 278 279 280 278 292 282 280 265 246 261 269 276
11 10 5 2 11 24 15 19 45 20 159 167 195 309 279 91 271 208 254 338 341 344 327 22 334 304 321 286 302 306 288 283 266 255 253 324 291 262 262 250 261 271 281 275 250
8 10 8 8 11 10 15 27 46 81 132 172 259 280 73 7 299 258 311 261 263 284 331 333 327 293 276 301 297 266 263 276 321 181 225 233 276 296 278 295 290 273 268 278 266
6 5 3 358 5 1 358 18 51 109 183 272 288 218 131 179 222 6 321 309 332 278 261 290 288 274 300 248 275 234 251 295 221 179 213 221 282 279 286 279 284 274 266 259 255
2 357 358 353 351 346 323 327 276 195 247 258 268 266 164 169 49 303 320 272 277 298 270 218 242 244 243 244 297 329 323 312 304 308 303 293 282 288 293 284 286 279 271 267 265
360 346 350 350 321 328 318 293 221 211 239 326 26 48 108 3 171 242 337 285 246 248 262 235 270 277 357 2 329 309 299 295 294 296 289 284 287 288 291 283 279 273 266 263 266
354 347 343 343 294 286 288 254 29 317 270 196 180 138 283 283 230 115 333 307 307 272 294 254 229 5 10 313 294 287 284 283 290 299 308 306 298 290 277 267 260 292 285 304 296
349 342 337 333 299 288 312 350 308 325 268 146 102 346 330 283 72 8 342 318 276 271 270 295 302 16 322 300 293 291 294 301 307 317 295 280 274 279 295 312 244 207 286 289 309
347 337 332 333 299 316 39 340 284 343 267 141 183 115 257 117 192 358 345 317 269 314 321 274 22 312 296 304 312 306 330 319 308 307 295 311 295 285 277 267 247 185 86 22 17
346 333 327 330 312 22 338 328 290 266 260 115 105 32 195 9 330 127 12 316 292 327 307 333 338 321 316 327 337 301 309 302 296 284 284 279 271 279 278 351 35 32 39 18 20
344 322 307 261 259 352 339 340 234 232 152 131 268 326 263 159 94 304 292 203 265 291 278 275 275 265 325 324 293 297 294 291 280 268 258 269 266 281 280 92 168 215 300 53 39
343 265 303 308 340 339 323 237 247 260 175 95 12 339 334 327 307 320 323 293 4 331 303 321 282 101 114 317 320 326 321 319 307 320 305 18 2 246 310 352 74 78 351 352 354
349 231 274 249 332 329 260 239 261 62 48 51 281 305 264 11 20 330 294 344 121 358 318 339 311 164 57 310 321 301 282 283 295 305 305 312 293 309 26 44 16 15 2 22 14
324 266 251 328 322 298 255 251 12 12 14 347 301 256 195 157 207 308 311 280 29 6 341 315 274 330 312 5 329 324 298 335 303 294 289 278 279 85 64 50 348 30 329 345 344
333 279 82 336 295 248 254 262 34 51 340 324 300 18 329 334 327 333 315 90 338 97 342 315 302 292 296 290 262 241 265 308 299 294 294 292 312 303 79 2 59 302 357 332 320
295 248 58 355 227 252 268 25 4 86 354 329 336 306 311 316 316 311 287 176 128 314 328 297 265 282 304 283 289 316 263 253 279 274 268 289 271 308 331 323 233 335 342 334 334
314 295 22 337 266 231 43 21 351 326 250 297 310 298 299 334 307 300 302 22 68 344 304 315 290 286 286 284 273 259 275 295 61 281 274 288 273 284 284 318 313 358 335 326 329
306 310 60 317 312 3 45 304 220 305 333 314 303 299 310 304 316 302 303 346 226 254 338 10 310 313 307 260 120 272 309 313 298 299 279 283 278 314 304 302 342 339 316 318 314
289 320 21 309 84 345 2 308 325 153 301 289 295 307 290 292 301 282 278 292 296 218 149 160 239 248 265 287 303 293 291 288 284 270 279 263 281 287 289 301 339 317 317 314 321
346 40 16 325 15 336 313 306 299 310 184 331 289 283 289 218 288 293 283 309 296 271 221 214 251 261 269 278 285 297 295 291 280 269 249 267 269 297 299 4 305 319 324 319 311
1 355 341 295 317 304 287 306 339 344 340 313 308 311 313 301 297 297 307 304 293 292 286 256 263 269 272 285 291 286 286 284 286 290 291 311 304 315 334 338 332 332 325 312 306
14 343 288 296 288 298 5 342 316 319 309 308 310 313 299 300 316 307 301 289 276 276 274 282 281 81 271 291 306 294 272 275 292 293 280 287 307 326 328 333 326 316 310 305 308